Regional Weather Roundup
Issued by NWS Little Rock, AR

Home | Current Version | Previous Version | Graphics & Text | Print | Product List | Glossary On
Versions: 1 2 3 4 5 6 7 8 9 10 11 12 13 14 15 16 17 18 19 20 21 22 23 24 25 26 27 28 29 30 31 32 33 34 35 36 37 38 39 40 41 42 43 44 45 46 47 48 49 50
717
ASUS44 KLZK 170905
RWRLZK

WEATHER ROUNDUP FOR ARKANSAS
NATIONAL WEATHER SERVICE LITTLE ROCK AR
400 AM CDT TUE OCT 17 2017

NOTE: "FAIR" INDICATES FEW OR NO CLOUDS BELOW 12,000 FEET WITH NO
SIGNIFICANT WEATHER AND/OR OBSTRUCTIONS TO VISIBILITY.

ARZ001-003-010-029-171000-
NORTHWEST ARKANSAS

CITY           SKY/WX    TMP DP  RH WIND       PRES   REMARKS
FAYETTEVILLE   CLEAR     40  40 100 CALM      30.31S
FORT SMITH     CLEAR     48  46  93 NE3       30.30F
HARRISON       CLEAR     40  38  93 CALM      30.30S
BENTONVILLE    CLEAR     43  40  89 CALM      30.32R
ROGERS         PTCLDY    44  41  89 SE6       30.30S
SILOAM SPGS    CLOUDY    42  40  92 E3        30.30S
HIGHFILL       CLEAR     42  39  89 CALM      30.30S
$$

ARZ004-005-016-171000-
NORTH CENTRAL ARKANSAS

CITY           SKY/WX    TMP DP  RH WIND       PRES   REMARKS
BATESVILLE     CLEAR     40  39  97 NW3       30.32F
FLIPPIN        CLEAR     39  38  96 CALM      30.31F
MTN HOME       CLEAR     41  40  96 CALM      30.29F
$$

ARZ040-041-171000-
WEST CENTRAL ARKANSAS

CITY           SKY/WX    TMP DP  RH WIND       PRES   REMARKS
MENA           CLEAR     37  37 100 CALM      30.31F
$$

ARZ009-017-025-026-028-171000-
NORTHEAST ARKANSAS

CITY           SKY/WX    TMP DP  RH WIND       PRES   REMARKS
CORNING        FAIR      41  41 100 N6        30.32S
JONESBORO      CLEAR     44  42  93 NE3       30.31S
NEWPORT        CLEAR     43  41  93 NW6       30.32S
WALNUT RIDGE   CLEAR     42  40  92 NW3       30.32S
BLYTHEVILLE    CLEAR     44  42  93 E6        30.31F
$$

ARZ022-023-033-042-044-171000-
CENTRAL ARKANSAS

CITY           SKY/WX    TMP DP  RH WIND       PRES   REMARKS
LITTLE ROCK    CLEAR     45  44  97 CALM      30.31F
N LITTLE ROCK    N/A     48  40  73 CALM      30.33F
JACKSONVILLE   CLEAR     40  38  93 CALM      30.30F
SEARCY         CLEAR     41  41 100 NW3       30.32
HOT SPRINGS    CLEAR     43  42  97 CALM      30.32S
RUSSELLVILLE   CLEAR     41  41 100 CALM      30.31S
CLINTON        FAIR      37  37 100 CALM      30.34S
$$

ARZ036-171000-
EAST ARKANSAS

CITY           SKY/WX    TMP DP  RH WIND       PRES   REMARKS
WEST MEMPHIS   CLEAR     44  43  96 CALM      30.29S
$$

ARZ050-053-066-070-073-171000-
SOUTHWEST ARKANSAS

CITY           SKY/WX    TMP DP  RH WIND       PRES   REMARKS
ARKADELPHIA    FAIR      37  36  96 CALM      30.32S
CAMDEN         CLEAR     37  34  87 CALM      30.29F FOG
TEXARKANA      CLEAR     43  40  89 CALM      30.30R
EL DORADO      CLEAR     42  40  92 CALM      30.29S
$$

ARZ056-057-069-171000-
SOUTHEAST ARKANSAS

CITY           SKY/WX    TMP DP  RH WIND       PRES   REMARKS
PINE BLUFF     CLEAR     45  39  79 CALM      30.30S
MONTICELLO     CLEAR     45  41  86 NE6       30.29S

$$






USA.gov is the U.S. government's official web portal to all federal, state and local government web resources and services.